TimeMST,TemperatureF,Dew PointF,Humidity,Sea Level PressureIn,VisibilityMPH,Wind Direction,Wind SpeedMPH,Gust SpeedMPH,PrecipitationIn,Events,Conditions,WindDirDegrees,DateUTC
12:53 AM,42.1,30.0,62,29.72,10.0,ENE,9.2,-,N/A,,Partly Cloudy,70,2013-01-28 07:53:00
1:53 AM,37.9,30.0,73,29.72,10.0,East,6.9,-,N/A,,Clear,80,2013-01-28 08:53:00
2:53 AM,39.0,30.0,70,29.71,10.0,Variable,4.6,-,N/A,,Partly Cloudy,0,2013-01-28 09:53:00
3:53 AM,39.0,32.0,76,29.67,10.0,South,6.9,-,0.00,Rain,Light Rain,170,2013-01-28 10:53:00
4:53 AM,37.0,32.0,82,29.67,10.0,ESE,6.9,-,0.00,Rain,Light Rain,120,2013-01-28 11:53:00
5:53 AM,39.9,30.9,70,29.65,10.0,South,9.2,-,0.00,,Overcast,170,2013-01-28 12:53:00
6:53 AM,36.0,33.1,89,29.68,10.0,South,6.9,-,0.00,Rain,Light Rain,170,2013-01-28 13:53:00
7:05 AM,37.4,33.8,87,29.74,10.0,East,3.5,-,0.00,Rain,Light Rain,100,2013-01-28 14:05:00
7:24 AM,35.6,33.8,93,29.74,10.0,East,5.8,-,0.01,Rain,Light Rain,80,2013-01-28 14:24:00
7:53 AM,35.1,33.1,92,29.69,10.0,NNE,3.5,-,0.01,Rain,Light Rain,30,2013-01-28 14:53:00
8:10 AM,33.8,33.8,100,29.76,4.0,NNW,6.9,-,0.00,Snow,Light Snow,330,2013-01-28 15:10:00
8:16 AM,33.8,32.0,93,29.76,1.8,NW,9.2,-,0.00,Snow,Light Snow,320,2013-01-28 15:16:00
8:25 AM,33.8,32.0,93,29.77,1.0,NW,6.9,-,0.01,Snow,Light Snow,310,2013-01-28 15:25:00
8:29 AM,32.0,32.0,100,29.77,1.0,NW,4.6,-,0.01,Snow,Light Snow,320,2013-01-28 15:29:00
8:48 AM,33.8,32.0,93,29.75,1.8,North,4.6,-,0.02,Snow,Light Snow,360,2013-01-28 15:48:00
8:53 AM,33.1,32.0,96,29.72,3.0,NNE,3.5,-,0.02,Snow,Light Snow,20,2013-01-28 15:53:00
9:08 AM,32.0,32.0,100,29.76,1.2,NNE,4.6,-,0.00,Snow,Light Snow,30,2013-01-28 16:08:00
9:22 AM,33.8,33.8,100,29.77,2.0,North,8.1,-,0.01,Snow,Light Snow,10,2013-01-28 16:22:00
9:33 AM,33.8,33.8,100,29.76,3.0,NNE,8.1,-,0.01,Snow,Light Snow,20,2013-01-28 16:33:00
9:37 AM,33.8,32.0,93,29.77,2.0,North,9.2,-,0.01,Snow,Light Snow,10,2013-01-28 16:37:00
9:39 AM,33.8,32.0,93,29.77,1.5,North,8.1,-,0.01,Snow,Light Snow,360,2013-01-28 16:39:00
9:43 AM,33.8,32.0,93,29.77,1.0,North,8.1,-,0.01,Snow,Light Snow,360,2013-01-28 16:43:00
9:51 AM,33.8,32.0,93,29.78,0.8,North,9.2,-,0.02,Snow,Light Snow,350,2013-01-28 16:51:00
9:53 AM,32.0,32.0,100,29.74,0.8,NNW,10.4,-,0.02,Snow,Light Snow,340,2013-01-28 16:53:00
10:04 AM,32.0,32.0,100,29.79,0.5,North,5.8,-,0.00,Fog-Snow,Snow,350,2013-01-28 17:04:00
10:21 AM,33.8,33.8,100,29.78,1.8,North,5.8,-,0.01,Snow,Light Snow,360,2013-01-28 17:21:00
10:31 AM,33.8,32.0,93,29.77,9.0,NNE,5.8,-,0.01,,Mostly Cloudy,30,2013-01-28 17:31:00
10:43 AM,33.8,32.0,93,29.78,10.0,NNE,5.8,-,0.01,,Mostly Cloudy,30,2013-01-28 17:43:00
10:53 AM,35.1,32.0,89,29.73,10.0,NNE,5.8,-,0.02,,Mostly Cloudy,20,2013-01-28 17:53:00
11:11 AM,33.8,30.2,87,29.79,2.5,NNW,5.8,-,0.00,Snow,Light Snow,340,2013-01-28 18:11:00
11:18 AM,33.8,32.0,93,29.79,1.0,NNW,6.9,-,0.00,Snow,Light Snow,330,2013-01-28 18:18:00
11:29 AM,33.8,32.0,93,29.79,1.8,NW,5.8,-,0.00,Snow,Light Snow,320,2013-01-28 18:29:00
11:32 AM,33.8,32.0,93,29.78,3.0,NNW,6.9,-,0.01,Snow,Light Snow,330,2013-01-28 18:32:00
11:53 AM,35.1,32.0,89,29.71,9.0,NNE,6.9,-,0.01,Snow,Light Snow,20,2013-01-28 18:53:00
12:53 PM,35.1,30.0,82,29.70,10.0,Calm,Calm,-,0.01,,Overcast,0,2013-01-28 19:53:00
1:04 PM,35.6,30.2,81,29.77,2.5,SW,4.6,-,0.00,Snow,Light Snow,230,2013-01-28 20:04:00
1:09 PM,35.6,30.2,81,29.77,3.0,West,6.9,-,0.00,Snow,Light Snow,270,2013-01-28 20:09:00
1:16 PM,35.6,30.2,81,29.77,7.0,Calm,Calm,-,0.00,Snow,Light Snow,0,2013-01-28 20:16:00
1:24 PM,35.6,28.4,75,29.78,9.0,WNW,10.4,-,0.00,,Overcast,290,2013-01-28 20:24:00
1:49 PM,33.8,28.4,81,29.79,2.5,West,6.9,-,0.00,Snow,Light Snow,270,2013-01-28 20:49:00
1:53 PM,33.1,28.9,85,29.74,2.0,WNW,4.6,-,0.00,Snow,Light Snow,290,2013-01-28 20:53:00
1:55 PM,33.8,28.4,81,29.78,1.5,West,5.8,-,0.00,Snow,Light Snow,270,2013-01-28 20:55:00
2:04 PM,33.8,30.2,87,29.78,2.0,Variable,5.8,-,0.00,Snow,Light Snow,0,2013-01-28 21:04:00
2:12 PM,33.8,30.2,87,29.77,9.0,Variable,5.8,-,0.00,,Overcast,0,2013-01-28 21:12:00
2:26 PM,33.8,24.8,70,29.76,10.0,SSE,6.9,-,0.00,,Mostly Cloudy,150,2013-01-28 21:26:00
2:53 PM,36.0,26.1,67,29.71,10.0,SE,9.2,16.1,0.00,,Overcast,130,2013-01-28 21:53:00
3:53 PM,37.0,21.9,54,29.71,10.0,West,6.9,24.2,N/A,,Mostly Cloudy,270,2013-01-28 22:53:00
4:53 PM,34.0,24.1,67,29.71,10.0,South,5.8,-,N/A,,Partly Cloudy,190,2013-01-28 23:53:00
5:53 PM,32.0,25.0,75,29.70,10.0,SE,6.9,-,N/A,,Clear,140,2013-01-29 00:53:00
6:41 PM,30.2,26.6,86,29.76,10.0,NW,20.7,-,N/A,,Mostly Cloudy,310,2013-01-29 01:41:00
6:53 PM,30.0,25.0,82,29.75,10.0,NW,12.7,24.2,N/A,,Overcast,320,2013-01-29 01:53:00
7:18 PM,26.6,26.6,100,29.79,5.0,NW,13.8,-,0.00,Snow,Light Snow,310,2013-01-29 02:18:00
7:25 PM,26.6,26.6,100,29.79,1.8,WNW,13.8,-,0.00,Snow,Light Snow,300,2013-01-29 02:25:00
7:35 PM,26.6,24.8,93,29.80,1.5,WNW,15.0,-,0.00,Snow,Light Snow,290,2013-01-29 02:35:00
7:49 PM,24.8,24.8,100,29.80,1.0,NW,15.0,-,0.00,Snow,Light Snow,310,2013-01-29 02:49:00
7:53 PM,25.0,24.1,96,29.80,0.8,NW,15.0,-,0.00,Snow,Light Snow,310,2013-01-29 02:53:00
8:00 PM,24.8,24.8,100,29.80,1.0,WNW,18.4,-,0.00,Snow,Light Snow,300,2013-01-29 03:00:00
8:05 PM,24.8,24.8,100,29.80,1.8,WNW,11.5,-,0.00,Snow,Light Snow,300,2013-01-29 03:05:00
8:08 PM,24.8,24.8,100,29.81,3.0,WNW,12.7,-,0.00,Snow,Light Snow,300,2013-01-29 03:08:00
8:17 PM,24.8,23.0,93,29.81,8.0,WNW,13.8,-,0.00,Snow,Light Snow,300,2013-01-29 03:17:00
8:53 PM,25.0,23.0,92,29.83,10.0,NW,9.2,-,0.00,,Overcast,310,2013-01-29 03:53:00
9:35 PM,24.8,21.2,86,29.82,3.0,NW,5.8,-,0.00,Snow,Light Snow,320,2013-01-29 04:35:00
9:53 PM,25.0,21.9,88,29.83,9.0,NNW,4.6,-,0.00,Snow,Light Snow,330,2013-01-29 04:53:00
10:53 PM,25.0,19.9,81,29.83,10.0,WNW,6.9,-,N/A,,Overcast,290,2013-01-29 05:53:00
11:53 PM,25.0,21.0,85,29.83,10.0,Calm,Calm,-,0.00,Snow,Light Snow,0,2013-01-29 06:53:00